Flag for Germany Weather past 2 weeks in Leer, Lower Saxony, Germany

Now
51 °F

Light freezing rain. Low clouds.


Feels Like: 46 °F
Forecast: 45 / 55 °F
Wind: 14 mph from Northwest

Location: Emden-Koenigspolder

Current Time: Oct 22, 2014 at 4:39:16 AM

Latest Report: Oct 22, 2014 at 4:00 AM


Visibility: 11 mi

Pressure: 29.65 "Hg

Humidity: 72%

Dew point: 42 °F

Location of LeerLocation

Historic Weather in Leer — Graph

°F

Leer temperature yesterday

Maximum temperature yesterday: 55 °F (at 4:00 PM)
Minimum temperature yesterday: 49 °F (at 11:00 PM)
Average temperature yesterday: 53 °F

Past Weeks' High & Low Weather Summary

 TemperatureHumidityPressure
High67 °F (Oct 19, 1:00 PM)100% (Oct 11, 7:00 AM)30.05 "Hg (Oct 11, 7:00 AM)
Low42 °F (Oct 11, 8:00 AM)57% (Oct 10, 3:00 PM)29.32 "Hg (Oct 21, 4:00 PM)
Average56 °F88%29.74 "Hg
* Reported Oct 7 3:00 AM — Oct 22 3:00 AM, Leer, Weather by CustomWeather, © 2014

Note: Actual official high and low records may vary slightly from our data, if they occured in-between our weather recording intervals... More about our weather records

Advertising

Leer weather history for previous 24 hours

 ConditionsComfort  
Time TempWeatherWind HumidityBarometerVisibility
3:00 AM
Oct 22
52 °FLow clouds.13 mph70%29.63 "Hg10 mi
2:00 AM52 °FLight rain. Overcast.15 mph75%29.59 "Hg11 mi
1:00 AM51 °FLow clouds.15 mph76%29.55 "Hg22 mi
12:00 AM51 °FOvercast.10 mph81%29.50 "Hg19 mi
11:00 PM
Oct 21
49 °FLight rain. Low clouds.9 mph89%29.50 "Hg3 mi
10:00 PM50 °FOvercast.12 mph79%29.47 "Hg25 mi
9:00 PM49 °FRain. Low clouds.13 mph86%29.44 "Hg4 mi
8:00 PM51 °FPassing clouds.9 mph79%29.41 "Hg31 mi
7:00 PM51 °FLow clouds.7 mph86%29.38 "Hg17 mi
6:00 PM53 °FOvercast.8 mph81%29.35 "Hg19 mi
4:00 PM55 °FOvercast.N/A89%29.32 "Hg22 mi
3:00 PM54 °FDrizzle. Low clouds.8 mph93%29.35 "Hg12 mi
2:00 PM54 °FDrizzle. Low clouds.9 mph92%29.38 "Hg7 mi
1:00 PM54 °FLight rain. Low clouds.8 mph93%29.44 "Hg6 mi
12:00 PM54 °FRain. Low clouds.8 mph95%29.50 "Hg3 mi
10:00 AM55 °FLow clouds.7 mph88%29.58 "Hg6 mi
9:00 AM54 °FLow clouds.7 mph91%29.61 "Hg6 mi
8:00 AM55 °FLow clouds.6 mph92%29.64 "Hg7 mi
7:00 AM55 °FLow clouds.6 mph93%29.67 "Hg6 mi
6:00 AM55 °FLow clouds.5 mph95%29.69 "Hg6 mi
4:00 AM55 °FLow clouds.6 mph92%29.75 "Hg7 mi
Weather by CustomWeather, © 2014

See weather overviewHow to use our weather pages